TimeCST,TemperatureF,Dew PointF,Humidity,Sea Level PressureIn,VisibilityMPH,Wind Direction,Wind SpeedMPH,Gust SpeedMPH,PrecipitationIn,Events,Conditions,WindDirDegrees,DateUTC
12:15 AM,15.8,12.2,86,29.88,10.0,NW,21.9,27.6,N/A,,Overcast,320,2012-12-10 06:15:00
12:35 AM,15.8,12.2,86,29.88,10.0,NW,19.6,27.6,N/A,,Overcast,320,2012-12-10 06:35:00
12:55 AM,14.0,10.4,86,29.89,7.0,NW,20.7,27.6,N/A,,Overcast,320,2012-12-10 06:55:00
1:15 AM,14.0,10.4,86,29.90,7.0,NW,21.9,26.5,N/A,Snow,Light Snow,310,2012-12-10 07:15:00
1:35 AM,14.0,8.6,79,29.90,7.0,NNW,20.7,31.1,N/A,Snow,Light Snow,330,2012-12-10 07:35:00
1:55 AM,12.2,8.6,85,29.90,10.0,NNW,13.8,25.3,N/A,,Overcast,330,2012-12-10 07:55:00
2:15 AM,12.2,6.8,79,29.92,5.0,NW,21.9,28.8,N/A,Snow,Light Snow,320,2012-12-10 08:15:00
2:55 AM,10.4,5.0,79,29.93,7.0,NNW,21.9,27.6,N/A,Snow,Light Snow,330,2012-12-10 08:55:00
3:15 AM,10.4,5.0,79,29.92,7.0,NW,16.1,-,N/A,Snow,Light Snow,320,2012-12-10 09:15:00
3:35 AM,10.4,5.0,79,29.92,7.0,NW,12.7,24.2,N/A,Snow,Light Snow,320,2012-12-10 09:35:00
3:55 AM,10.4,5.0,79,29.92,7.0,NNW,18.4,25.3,N/A,Snow,Light Snow,330,2012-12-10 09:55:00
4:15 AM,10.4,5.0,79,29.92,7.0,NW,15.0,19.6,N/A,Snow,Light Snow,310,2012-12-10 10:15:00
4:35 AM,10.4,5.0,79,29.92,7.0,NW,10.4,20.7,N/A,Snow,Light Snow,320,2012-12-10 10:35:00
4:55 AM,10.4,5.0,79,29.92,7.0,NW,15.0,19.6,N/A,Snow,Light Snow,310,2012-12-10 10:55:00
5:15 AM,10.4,5.0,79,29.92,7.0,NW,13.8,-,N/A,Snow,Light Snow,310,2012-12-10 11:15:00
5:55 AM,8.6,3.2,79,29.92,10.0,NW,15.0,18.4,N/A,,Overcast,310,2012-12-10 11:55:00
6:15 AM,8.6,3.2,79,29.92,10.0,NW,12.7,21.9,N/A,,Overcast,320,2012-12-10 12:15:00
6:35 AM,8.6,3.2,79,29.93,10.0,NW,17.3,21.9,N/A,,Overcast,310,2012-12-10 12:35:00
7:15 AM,8.6,3.2,79,29.93,10.0,NNW,12.7,17.3,N/A,,Overcast,330,2012-12-10 13:15:00
7:35 AM,8.6,3.2,79,29.94,7.0,NW,12.7,-,N/A,,Overcast,310,2012-12-10 13:35:00
7:55 AM,8.6,3.2,79,29.94,10.0,NW,13.8,18.4,N/A,,Overcast,310,2012-12-10 13:55:00
8:15 AM,8.6,3.2,79,29.94,10.0,NW,9.2,-,N/A,,Overcast,320,2012-12-10 14:15:00
8:35 AM,8.6,3.2,79,29.94,10.0,WNW,10.4,-,N/A,,Overcast,300,2012-12-10 14:35:00
8:55 AM,8.6,3.2,79,29.94,10.0,NW,10.4,-,N/A,,Overcast,310,2012-12-10 14:55:00
9:15 AM,8.6,3.2,79,29.94,10.0,NW,11.5,-,N/A,,Overcast,310,2012-12-10 15:15:00
9:35 AM,8.6,3.2,79,29.95,10.0,NW,10.4,-,N/A,,Overcast,310,2012-12-10 15:35:00
9:55 AM,8.6,3.2,79,29.96,10.0,WNW,11.5,-,N/A,,Overcast,300,2012-12-10 15:55:00
10:15 AM,8.6,3.2,79,29.96,10.0,WNW,10.4,-,N/A,,Overcast,300,2012-12-10 16:15:00
10:35 AM,8.6,3.2,79,29.96,10.0,WNW,10.4,-,N/A,Snow,Light Snow,300,2012-12-10 16:35:00
10:55 AM,10.4,5.0,79,29.96,10.0,NW,11.5,-,N/A,,Overcast,310,2012-12-10 16:55:00
11:15 AM,10.4,5.0,79,29.95,10.0,NW,6.9,-,N/A,,Overcast,320,2012-12-10 17:15:00
11:35 AM,10.4,5.0,79,29.94,10.0,NW,9.2,-,N/A,,Mostly Cloudy,320,2012-12-10 17:35:00
11:55 AM,12.2,5.0,73,29.93,10.0,WNW,9.2,-,N/A,,Scattered Clouds,300,2012-12-10 17:55:00
12:15 PM,12.2,8.6,85,29.93,10.0,WNW,8.1,-,N/A,,Clear,290,2012-12-10 18:15:00
12:35 PM,14.0,10.4,86,29.92,10.0,WNW,8.1,-,N/A,,Clear,290,2012-12-10 18:35:00
12:55 PM,14.0,10.4,86,29.92,10.0,West,8.1,-,N/A,,Clear,280,2012-12-10 18:55:00
1:15 PM,15.8,10.4,79,29.91,10.0,WNW,11.5,-,N/A,,Clear,300,2012-12-10 19:15:00
1:35 PM,17.6,12.2,79,29.90,10.0,WNW,9.2,-,N/A,,Clear,290,2012-12-10 19:35:00
1:55 PM,17.6,12.2,79,29.90,10.0,WNW,8.1,-,N/A,,Clear,300,2012-12-10 19:55:00
2:15 PM,17.6,12.2,79,29.90,10.0,WNW,9.2,-,N/A,,Clear,300,2012-12-10 20:15:00
2:35 PM,19.4,12.2,74,29.89,10.0,WNW,8.1,-,N/A,,Clear,300,2012-12-10 20:35:00
2:55 PM,19.4,12.2,74,29.89,10.0,WNW,6.9,-,N/A,,Clear,290,2012-12-10 20:55:00
3:15 PM,19.4,12.2,74,29.89,10.0,WNW,5.8,-,N/A,,Clear,300,2012-12-10 21:15:00
3:35 PM,19.4,12.2,74,29.89,10.0,WNW,4.6,-,N/A,,Clear,300,2012-12-10 21:35:00
3:55 PM,19.4,12.2,74,29.89,10.0,WNW,3.5,-,N/A,,Clear,290,2012-12-10 21:55:00
4:15 PM,19.4,10.4,68,29.89,10.0,WNW,3.5,-,N/A,,Clear,300,2012-12-10 22:15:00
4:35 PM,17.6,10.4,73,29.89,10.0,Calm,Calm,-,N/A,,Clear,0,2012-12-10 22:35:00
4:55 PM,17.6,10.4,73,29.89,10.0,Calm,Calm,-,N/A,,Clear,0,2012-12-10 22:55:00
5:15 PM,14.0,10.4,86,29.89,10.0,Calm,Calm,-,N/A,,Clear,0,2012-12-10 23:15:00
5:35 PM,14.0,10.4,86,29.90,10.0,Calm,Calm,-,N/A,,Clear,0,2012-12-10 23:35:00
5:55 PM,12.2,8.6,85,29.90,10.0,Calm,Calm,-,N/A,,Clear,0,2012-12-10 23:55:00
6:15 PM,12.2,8.6,85,29.89,10.0,Calm,Calm,-,N/A,,Clear,0,2012-12-11 00:15:00
6:35 PM,12.2,8.6,85,29.89,10.0,Calm,Calm,-,N/A,,Clear,0,2012-12-11 00:35:00
6:55 PM,12.2,8.6,85,29.89,10.0,Calm,Calm,-,N/A,,Clear,0,2012-12-11 00:55:00
7:15 PM,14.0,10.4,86,29.89,10.0,Calm,Calm,-,N/A,,Clear,0,2012-12-11 01:15:00
7:35 PM,12.2,10.4,92,29.88,10.0,SE,3.5,-,N/A,,Clear,130,2012-12-11 01:35:00
7:55 PM,12.2,8.6,85,29.88,10.0,Calm,Calm,-,N/A,,Clear,0,2012-12-11 01:55:00
8:15 PM,12.2,8.6,85,29.89,10.0,Calm,Calm,-,N/A,,Clear,0,2012-12-11 02:15:00
8:55 PM,10.4,6.8,85,29.88,10.0,SE,4.6,-,N/A,,Clear,140,2012-12-11 02:55:00
9:15 PM,12.2,8.6,85,29.87,10.0,SE,5.8,-,N/A,,Scattered Clouds,140,2012-12-11 03:15:00
9:35 PM,12.2,6.8,79,29.87,10.0,SSE,6.9,-,N/A,,Scattered Clouds,150,2012-12-11 03:35:00
9:55 PM,12.2,8.6,85,29.87,10.0,SSE,8.1,-,N/A,,Scattered Clouds,150,2012-12-11 03:55:00
10:15 PM,12.2,8.6,85,29.87,10.0,SSE,9.2,-,N/A,,Mostly Cloudy,150,2012-12-11 04:15:00
10:35 PM,12.2,6.8,79,29.87,10.0,SSE,6.9,-,N/A,,Scattered Clouds,150,2012-12-11 04:35:00
10:55 PM,12.2,6.8,79,29.86,10.0,SSE,5.8,-,N/A,,Scattered Clouds,160,2012-12-11 04:55:00
11:15 PM,14.0,8.6,79,29.86,10.0,SSE,5.8,-,N/A,,Overcast,160,2012-12-11 05:15:00
11:35 PM,14.0,8.6,79,29.85,10.0,SSE,6.9,-,N/A,,Overcast,160,2012-12-11 05:35:00
11:55 PM,15.8,8.6,73,29.85,10.0,SSE,6.9,-,N/A,,Overcast,160,2012-12-11 05:55:00